User: anonymous   Login
Location: Saint-Michel-des-Saints
(46.6688°N, 73.9573°W)
Time: 22:33:02
(UTC-05:00)
Language:

Hubble Space Telescope - Orbit

View from above orbital plane
View from above orbital plane
View from above satellite
View from above satellite

Ground track
Ground track

The orbit data is extracted from the following two-line orbital elements,

1 20580U 90037B   21021.87188131  .00000491  00000-0  18805-4 0  9997
2 20580  28.4706 314.8957 0002459 283.4921 119.0833 15.09539171488938
Epoch (UTC): 21 January 2021 20:55:30
Eccentricity: 0.0002459
inclination: 28.4706°
perigee height: 536 km
apogee height: 539 km
right ascension of ascending node: 314.8957°
argument of perigee: 283.4921°
revolutions per day: 15.09539171
mean anomaly at epoch: 119.0833°
orbit number at epoch: 48893

The dashed part of the orbit path shows where the satellite is in the earth's shadow,  

DLR